period_start,C,m1,H,J0,J1,J2,J3,J4,J5,JA,JB,JC,JD,JJ,JK,JN,#
2017-09-09 00:00:29,0.00,0.18,0.00,23.98,27.52,30.20,13.93,40.92,1025.51,2031.98,3484.91,3043.97,3473.88,599.94,599.20,32.33,0000 0000 0000 0000 000000
2017-09-09 00:05:30,0.01,0.18,0.00,23.99,27.52,30.21,13.90,41.02,1025.63,2031.93,3484.47,3043.70,3473.35,600.05,599.45,32.38,0000 0000 0000 0000 000000
2017-09-09 00:10:32,0.01,0.18,0.00,24.09,27.52,30.19,13.87,41.01,1025.80,2031.94,3484.34,3043.66,3473.19,600.09,599.26,32.43,0000 0000 0000 0000 000000
2017-09-09 00:15:33,0.00,0.18,0.00,24.09,27.52,30.18,13.95,41.00,1025.80,2031.98,3484.46,3043.87,3473.43,600.08,599.22,32.48,0000 0000 0000 0000 000000
2017-09-09 00:20:34,0.00,0.18,0.00,24.00,27.52,30.21,13.91,41.13,1025.82,2031.98,3484.16,3043.83,3473.29,599.89,599.25,32.53,0000 0000 0000 0000 000000
2017-09-09 00:25:35,0.00,0.18,0.00,24.04,27.52,30.20,13.80,40.97,1025.84,2031.96,3484.04,3043.59,3473.06,599.95,599.26,32.58,0000 0000 0000 0000 000000
2017-09-09 00:30:37,0.01,0.18,0.00,24.03,27.52,30.19,13.89,41.21,1025.86,2031.95,3484.01,3043.40,3473.01,599.98,599.38,32.63,0000 0000 0000 0000 000000
2017-09-09 00:35:38,0.00,0.18,0.00,24.03,27.52,30.21,13.96,40.96,1025.87,2031.95,3484.00,3043.10,3473.01,600.00,599.10,32.68,0000 0000 0000 0000 000000
2017-09-09 00:40:39,0.00,0.18,0.00,24.04,27.52,30.23,13.90,41.07,1025.88,2031.98,3484.00,3043.07,3473.01,599.89,599.26,32.73,0000 0000 0000 0000 000000
2017-09-09 00:45:41,-0.00,0.18,0.00,24.02,27.52,30.23,13.93,41.06,1025.89,2031.97,3484.00,3043.09,3473.00,600.24,599.60,32.78,0000 0000 0000 0000 000000
2017-09-09 00:50:42,-0.00,0.18,0.00,24.04,27.52,30.22,13.89,41.12,1025.89,2031.95,3484.00,3043.03,3473.00,599.98,599.32,32.83,0000 0000 0000 0000 000000
2017-09-09 00:55:43,0.00,0.18,0.00,23.99,27.53,30.23,13.90,41.06,1025.89,2031.98,3483.99,3043.04,3473.00,600.06,599.51,32.88,0000 0000 0000 0000 000000
2017-09-09 01:00:45,0.00,0.18,0.00,24.04,27.53,30.23,13.92,40.97,1025.90,2031.97,3483.99,3043.03,3473.00,599.95,599.28,32.93,0000 0000 0000 0000 000000
2017-09-09 01:05:46,-0.01,0.18,0.00,24.02,27.53,30.19,13.86,40.91,1025.90,2031.85,3483.99,3043.02,3472.98,599.81,599.41,32.98,0000 0000 0000 0000 000000
2017-09-09 01:10:47,0.01,0.18,0.00,24.01,27.54,30.21,13.88,40.95,1025.90,2031.93,3483.98,3043.02,3472.98,599.88,599.26,33.03,0000 0000 0000 0000 000000
2017-09-09 01:15:48,-0.00,0.18,0.00,24.02,27.54,30.21,13.96,41.77,1025.90,2031.67,3483.53,3043.00,3472.88,600.28,599.81,33.08,0000 0000 0000 0000 000000
2017-09-09 01:20:50,0.02,0.18,0.00,24.04,27.55,30.22,13.94,41.44,1025.92,2031.90,3483.10,3043.00,3472.86,600.04,599.43,33.13,0000 0000 0000 0000 000000
2017-09-09 01:25:51,0.00,0.18,0.00,24.04,27.55,30.22,13.94,40.92,1025.92,2031.89,3483.04,3043.00,3472.65,600.07,599.47,33.19,0000 0000 0000 0000 000000
2017-09-09 01:30:52,0.01,0.18,0.00,24.06,27.55,30.23,13.92,40.92,1025.91,2031.93,3483.02,3043.00,3472.33,600.05,599.40,33.24,0000 0000 0000 0000 000000
2017-09-09 01:35:53,0.00,0.18,0.00,24.13,27.55,30.21,13.88,40.84,1025.91,2031.93,3483.00,3043.00,3472.13,600.21,599.25,33.29,0000 0000 0000 0000 000000
2017-09-09 01:40:54,0.00,0.18,0.00,24.10,27.55,30.17,13.97,41.17,1025.93,2031.91,3482.99,3042.97,3472.01,600.11,599.33,33.34,0000 0000 0000 0000 000000
2017-09-09 01:45:56,0.00,0.18,0.00,24.07,27.55,30.17,13.89,41.02,1025.99,2031.70,3482.57,3042.71,3472.00,600.06,599.38,33.39,0000 0000 0000 0000 000000
2017-09-09 01:50:57,0.02,0.19,0.00,24.11,27.55,30.16,13.87,40.93,1026.20,2031.84,3482.04,3042.23,3472.00,600.09,599.50,33.44,0000 0000 0000 0000 000000
2017-09-09 01:55:58,0.00,0.19,0.00,24.10,27.55,30.15,13.91,40.92,1026.33,2031.82,3482.01,3042.08,3471.85,600.32,599.92,33.49,0000 0000 0000 0000 000000
2017-09-09 02:00:59,-0.01,0.18,0.00,24.09,27.55,30.14,13.90,41.05,1026.35,2031.60,3482.00,3042.03,3471.45,600.22,599.84,33.54,0000 0000 0000 0000 000000
2017-09-09 02:06:01,-0.00,0.19,0.00,24.09,27.55,30.13,13.83,40.98,1026.36,2031.60,3482.00,3042.01,3471.25,599.62,599.28,33.59,0000 0000 0000 0000 000000
2017-09-09 02:11:02,0.02,0.19,0.00,24.09,27.55,30.12,13.89,41.02,1026.38,2031.76,3482.00,3042.01,3471.21,599.69,599.37,33.64,0000 0000 0000 0000 000000
2017-09-09 02:16:04,-0.00,0.19,0.00,24.09,27.55,30.11,13.86,40.75,1026.38,2031.89,3481.98,3042.00,3471.23,599.90,599.53,33.69,0000 0000 0000 0000 000000
2017-09-09 02:21:05,0.00,0.19,0.00,24.10,27.55,30.10,13.94,41.03,1026.38,2031.88,3481.94,3042.00,3471.06,600.18,599.73,33.74,0000 0000 0000 0000 000000
2017-09-09 02:26:06,0.00,0.19,0.00,24.10,27.56,30.11,13.92,41.02,1026.38,2031.79,3481.81,3042.00,3471.02,600.23,599.75,33.79,0000 0000 0000 0000 000000
2017-09-09 02:31:07,0.00,0.19,0.00,24.11,27.57,30.09,13.86,40.92,1026.38,2031.80,3481.50,3042.00,3471.01,599.87,599.39,33.84,0000 0000 0000 0000 000000
2017-09-09 02:36:08,-0.01,0.19,0.00,24.12,27.57,30.10,13.87,41.00,1026.38,2031.68,3481.14,3041.98,3471.00,600.02,599.47,33.89,0000 0000 0000 0000 000000
2017-09-09 02:41:09,-0.01,0.18,0.00,24.16,27.57,30.11,13.86,41.08,1026.38,2031.39,3481.02,3041.96,3470.99,599.77,599.20,33.94,0000 0000 0000 0000 000000
2017-09-09 02:46:11,0.01,0.19,0.00,24.16,27.57,30.10,13.91,41.04,1026.39,2031.49,3481.00,3041.89,3470.97,599.97,599.55,33.99,0000 0000 0000 0000 000000
2017-09-09 02:51:12,-0.02,0.19,0.00,24.15,27.57,30.10,13.92,41.13,1026.40,2031.37,3481.00,3041.83,3470.91,599.85,599.33,34.04,0000 0000 0000 0000 000000
2017-09-09 02:56:14,0.01,0.19,0.00,24.15,27.57,30.10,13.87,40.92,1026.40,2031.28,3480.99,3041.62,3470.78,600.02,599.55,34.10,0000 0000 0000 0000 000000
2017-09-09 03:01:15,0.01,0.19,0.00,24.16,27.57,30.10,13.98,40.97,1026.40,2031.17,3480.95,3041.20,3470.26,600.50,599.86,34.15,0000 0000 0000 0000 000000
2017-09-09 03:06:16,0.01,0.19,0.00,24.14,27.57,30.10,14.01,41.12,1026.39,2031.19,3480.86,3041.07,3470.10,600.33,599.72,34.20,0000 0000 0000 0000 000000
2017-09-09 03:11:17,0.02,0.19,0.00,24.13,27.58,30.10,13.93,40.85,1026.40,2031.24,3480.38,3041.03,3470.04,600.10,599.61,34.25,0000 0000 0000 0000 000000
2017-09-09 03:16:19,0.03,0.19,0.00,24.15,27.59,30.10,13.88,40.94,1026.39,2031.53,3480.06,3041.01,3470.01,600.07,599.60,34.30,0000 0000 0000 0000 000000
2017-09-09 03:21:20,-0.02,0.19,0.00,24.14,27.59,30.10,13.83,40.84,1026.41,2031.39,3480.03,3041.00,3470.00,600.16,599.59,34.35,0000 0000 0000 0000 000000
2017-09-09 03:26:21,-0.01,0.19,0.00,24.14,27.60,30.10,13.88,40.98,1026.42,2031.32,3480.01,3041.00,3470.00,599.67,599.21,34.40,0000 0000 0000 0000 000000
2017-09-09 03:31:22,-0.01,0.19,0.00,24.15,27.60,30.11,13.99,41.01,1026.49,2031.08,3480.00,3041.00,3470.00,600.18,599.65,34.45,0000 0000 0000 0000 000000
2017-09-09 03:36:23,0.01,0.19,0.00,24.17,27.60,30.11,13.85,40.88,1026.52,2031.24,3479.95,3040.98,3469.98,599.88,599.36,34.50,0000 0000 0000 0000 000000
2017-09-09 03:41:24,-0.01,0.19,0.00,24.21,27.60,30.11,13.83,40.95,1026.55,2031.12,3479.91,3040.99,3469.95,599.69,598.96,34.55,0000 0000 0000 0000 000000
2017-09-09 03:46:26,0.01,0.19,0.00,24.22,27.60,30.11,13.95,40.93,1026.73,2031.14,3479.82,3040.98,3469.95,600.41,599.81,34.60,0000 0000 0000 0000 000000
2017-09-09 03:51:27,0.01,0.19,0.00,24.19,27.60,30.10,13.88,40.81,1026.83,2031.16,3479.39,3040.97,3469.74,599.94,599.47,34.65,0000 0000 0000 0000 000000
2017-09-09 03:56:28,0.01,0.19,0.00,24.21,27.60,30.11,13.89,40.98,1026.86,2031.10,3479.11,3040.89,3469.45,600.12,599.71,34.70,0000 0000 0000 0000 000000
2017-09-09 04:01:29,0.01,0.19,0.00,24.22,27.60,30.12,13.89,41.01,1026.85,2031.04,3479.00,3040.30,3469.03,599.97,599.52,34.75,0000 0000 0000 0000 000000
2017-09-09 04:06:31,0.01,0.19,0.00,24.25,27.60,30.12,13.91,41.35,1026.87,2031.03,3478.98,3040.02,3469.00,600.54,600.08,34.80,0000 0000 0000 0000 000000
2017-09-09 04:11:33,0.00,0.19,0.00,24.24,27.62,30.13,13.80,40.99,1026.87,2031.00,3478.81,3040.00,3468.97,599.86,599.55,34.85,0000 0000 0000 0000 000000
2017-09-09 04:16:34,0.00,0.19,0.00,24.26,27.62,30.12,13.89,41.14,1026.87,2031.01,3478.61,3040.00,3468.94,599.79,599.33,34.90,0000 0000 0000 0000 000000
2017-09-09 04:21:35,0.01,0.19,0.00,24.28,27.62,30.12,13.89,41.11,1026.87,2031.00,3478.27,3040.00,3468.89,599.63,599.10,34.95,0000 0000 0000 0000 000000
2017-09-09 04:26:36,0.00,0.19,0.00,24.30,27.63,30.13,13.92,41.08,1026.88,2031.03,3478.00,3039.99,3468.64,599.92,599.42,35.00,0000 0000 0000 0000 000000
2017-09-09 04:31:37,0.03,0.19,0.00,24.29,27.65,30.14,14.01,41.08,1026.87,2031.11,3477.63,3039.78,3468.07,600.17,599.64,35.06,0000 0000 0000 0000 000000
2017-09-09 04:36:39,0.02,0.19,0.00,24.28,27.65,30.14,13.94,40.91,1026.89,2031.10,3477.03,3039.07,3467.99,600.07,599.57,35.11,0000 0000 0000 0000 000000
2017-09-09 04:41:40,0.00,0.19,0.00,24.29,27.65,30.15,13.84,41.05,1026.95,2031.05,3476.96,3038.99,3467.65,599.94,599.39,35.16,0000 0000 0000 0000 000000
2017-09-09 04:46:41,0.01,0.19,0.00,24.30,27.65,30.16,13.90,41.02,1027.13,2031.05,3476.57,3038.96,3467.19,600.19,599.69,35.21,0000 0000 0000 0000 000000
2017-09-09 04:51:42,0.00,0.19,0.00,24.29,27.66,30.17,13.86,40.99,1027.28,2031.01,3476.10,3038.82,3467.01,599.99,599.56,35.26,0000 0000 0000 0000 000000
2017-09-09 04:56:44,0.01,0.19,0.00,24.31,27.67,30.16,13.87,41.05,1027.36,2031.02,3476.02,3038.51,3467.00,599.87,599.65,35.31,0000 0000 0000 0000 000000
2017-09-09 05:01:45,0.01,0.19,0.00,24.30,27.67,30.17,13.90,40.98,1027.36,2031.00,3476.02,3038.39,3467.00,599.86,599.58,35.36,0000 0000 0000 0000 000000
2017-09-09 05:06:46,0.01,0.20,0.00,24.31,27.67,30.17,13.94,40.95,1027.36,2031.01,3475.98,3038.05,3466.99,600.30,599.96,35.41,0000 0000 0000 0000 000000
2017-09-09 05:11:47,0.01,0.20,0.00,24.35,27.67,30.18,13.91,41.09,1027.36,2031.02,3475.81,3038.01,3466.84,599.59,599.20,35.46,0000 0000 0000 0000 000000
2017-09-09 05:16:49,0.02,0.20,0.00,24.34,27.67,30.18,13.86,41.17,1027.36,2031.01,3475.08,3038.00,3466.15,599.73,599.29,35.51,0000 0000 0000 0000 000000
2017-09-09 05:21:50,0.00,0.20,0.00,24.35,27.69,30.18,13.88,40.92,1027.36,2031.00,3475.00,3037.94,3466.00,599.98,599.40,35.56,0000 0000 0000 0000 000000
2017-09-09 05:26:51,0.00,0.20,0.00,24.35,27.70,30.19,13.92,41.11,1027.36,2031.00,3474.99,3037.85,3465.99,600.22,599.81,35.61,0000 0000 0000 0000 000000
2017-09-09 05:31:52,0.01,0.20,0.00,24.36,27.70,30.20,13.94,41.15,1027.36,2031.00,3474.90,3037.42,3465.98,600.06,599.71,35.66,0000 0000 0000 0000 000000
2017-09-09 05:36:53,0.01,0.20,0.00,24.38,27.70,30.20,13.94,41.12,1027.36,2030.99,3474.71,3037.11,3465.86,600.00,599.42,35.71,0000 0000 0000 0000 000000
2017-09-09 05:41:54,0.01,0.20,0.00,24.36,27.70,30.20,13.96,41.02,1027.36,2030.99,3474.27,3037.04,3465.44,599.96,599.52,35.76,0000 0000 0000 0000 000000
2017-09-09 05:46:55,0.00,0.20,0.00,24.38,27.72,30.19,13.84,41.08,1027.36,2030.99,3473.98,3036.99,3465.03,599.51,599.05,35.81,0000 0000 0000 0000 000000
2017-09-09 05:51:57,0.00,0.20,0.00,24.39,27.72,30.20,13.80,41.09,1027.36,2030.99,3473.87,3036.97,3465.00,599.82,599.32,35.86,0000 0000 0000 0000 000000
2017-09-09 05:56:58,0.00,0.20,0.00,24.41,27.72,30.21,13.88,40.88,1027.36,2030.97,3473.65,3036.95,3464.98,600.06,599.51,35.91,0000 0000 0000 0000 000000
2017-09-09 06:01:59,0.01,0.20,0.00,24.41,27.73,30.21,13.87,40.88,1027.36,2030.98,3473.19,3036.89,3464.95,599.75,599.21,35.96,0000 0000 0000 0000 000000
2017-09-09 06:07:01,-0.00,0.20,0.00,24.42,27.75,30.22,13.82,40.81,1027.36,2030.97,3473.21,3036.86,3464.88,599.81,599.20,36.02,0000 0000 0000 0000 000000
2017-09-09 06:12:02,0.03,0.20,0.00,24.43,27.75,30.22,13.87,40.91,1027.37,2030.97,3473.02,3036.24,3464.49,600.10,599.57,36.07,0000 0000 0000 0000 000000
2017-09-09 06:17:03,0.00,0.20,0.00,24.44,27.75,30.22,13.89,41.05,1027.38,2030.97,3472.99,3036.04,3464.06,599.99,599.39,36.12,0000 0000 0000 0000 000000
2017-09-09 06:22:05,0.00,0.20,0.00,24.45,27.76,30.23,13.92,41.13,1027.39,2030.94,3472.98,3036.02,3464.01,599.98,599.45,36.17,0000 0000 0000 0000 000000
2017-09-09 06:27:06,-0.00,0.20,0.00,24.44,27.77,30.22,13.96,40.84,1027.40,2030.95,3472.92,3036.00,3464.00,600.09,599.50,36.22,0000 0000 0000 0000 000000
2017-09-09 06:32:07,-0.00,0.20,0.00,24.44,27.77,30.23,13.90,40.90,1027.46,2030.93,3472.86,3036.00,3464.00,599.92,599.41,36.27,0000 0000 0000 0000 000000
2017-09-09 06:37:09,-0.01,0.20,0.00,24.45,27.77,30.23,13.89,40.94,1027.51,2030.82,3472.79,3036.00,3463.99,599.74,599.22,36.32,0000 0000 0000 0000 000000
2017-09-09 06:42:10,0.00,0.20,0.00,24.46,27.79,30.24,13.90,40.99,1027.56,2030.78,3472.12,3036.00,3463.99,600.06,599.61,36.37,0000 0000 0000 0000 000000
2017-09-09 06:47:11,0.00,0.20,0.00,24.47,27.80,30.25,13.90,40.87,1027.62,2030.79,3472.02,3035.99,3463.92,599.87,599.46,36.42,0000 0000 0000 0000 000000
2017-09-09 06:52:12,-0.00,0.20,0.00,24.46,27.80,30.25,13.88,41.08,1027.71,2030.85,3472.01,3035.99,3463.88,600.08,599.33,36.47,0000 0000 0000 0000 000000
2017-09-09 06:57:13,-0.01,0.20,0.00,24.46,27.80,30.25,13.92,41.01,1027.74,2030.67,3472.00,3035.93,3463.44,600.14,599.79,36.52,0000 0000 0000 0000 000000
2017-09-09 07:02:14,0.02,0.20,0.00,24.47,27.80,30.24,13.87,40.91,1027.72,2030.64,3471.76,3035.56,3463.11,599.76,599.34,36.57,0000 0000 0000 0000 000000
2017-09-09 07:07:16,0.04,0.21,0.00,24.48,27.80,30.25,13.89,40.67,1027.66,2030.81,3470.99,3035.01,3462.98,599.83,599.38,36.62,0000 0000 0000 0000 000000
2017-09-09 07:12:17,0.02,0.21,0.00,24.49,27.80,30.25,13.87,40.80,1027.78,2030.89,3470.23,3034.98,3462.60,599.82,599.47,36.67,0000 0000 0000 0000 000000
2017-09-09 07:17:18,-0.00,0.21,0.00,24.49,27.81,30.26,13.97,41.08,1027.85,2030.86,3470.01,3034.94,3462.20,600.31,600.00,36.72,0000 0000 0000 0000 000000
2017-09-09 07:22:19,-0.01,0.21,0.00,24.49,27.82,30.26,13.81,40.85,1027.85,2030.71,3470.00,3034.92,3462.03,600.05,599.59,36.77,0000 0000 0000 0000 000000
2017-09-09 07:27:21,-0.01,0.21,0.00,24.50,27.82,30.27,13.92,40.91,1027.85,2030.55,3470.00,3034.87,3462.01,599.92,599.54,36.82,0000 0000 0000 0000 000000
2017-09-09 07:32:22,-0.02,0.21,0.00,24.52,27.82,30.26,13.95,40.93,1027.85,2030.33,3469.98,3034.42,3462.00,599.93,599.68,36.88,0000 0000 0000 0000 000000
2017-09-09 07:37:23,0.01,0.21,0.00,24.53,27.82,30.28,13.81,41.04,1027.85,2030.27,3469.96,3034.28,3462.00,599.86,599.45,36.93,0000 0000 0000 0000 000000
2017-09-09 07:42:24,0.00,0.21,0.00,24.52,27.82,30.27,13.87,41.14,1027.85,2030.26,3469.89,3034.08,3461.97,600.30,599.84,36.98,0000 0000 0000 0000 000000
2017-09-09 07:47:25,-0.00,0.21,0.00,24.53,27.83,30.27,13.85,40.98,1027.85,2030.17,3469.84,3034.09,3461.94,599.86,599.46,37.03,0000 0000 0000 0000 000000
2017-09-09 07:52:26,0.01,0.21,0.00,24.56,27.84,30.28,13.90,40.92,1027.85,2030.10,3469.45,3034.02,3461.71,600.04,599.31,37.08,0000 0000 0000 0000 000000
2017-09-09 07:57:28,0.00,0.21,0.00,24.55,27.85,30.29,13.88,40.88,1027.86,2030.04,3469.37,3034.02,3461.22,600.17,599.57,37.13,0000 0000 0000 0000 000000
2017-09-09 08:02:29,0.00,0.21,0.00,24.55,27.85,30.30,13.89,40.99,1027.86,2030.01,3469.12,3034.01,3461.05,600.40,599.93,37.18,0000 0000 0000 0000 000000
2017-09-09 08:07:30,0.00,0.21,0.00,24.57,27.85,30.28,13.85,41.03,1027.86,2030.00,3469.04,3034.00,3461.03,599.87,599.32,37.23,0000 0000 0000 0000 000000
2017-09-09 08:12:32,0.00,0.21,0.00,24.60,27.86,30.28,13.83,41.00,1027.87,2030.00,3469.02,3034.00,3461.00,599.97,599.39,37.28,0000 0000 0000 0000 000000
2017-09-09 08:17:33,0.00,0.21,0.00,24.63,27.87,30.28,13.91,40.90,1027.89,2030.00,3469.00,3034.00,3461.00,599.73,599.04,37.33,0000 0000 0000 0000 000000
2017-09-09 08:22:34,0.00,0.21,0.00,24.66,27.87,30.29,13.92,40.97,1027.93,2030.00,3468.99,3033.99,3460.97,600.23,599.53,37.38,0000 0000 0000 0000 000000
2017-09-09 08:27:35,0.01,0.21,0.00,24.69,27.89,30.29,13.95,41.09,1027.96,2030.00,3468.75,3033.92,3460.76,600.45,599.82,37.43,0000 0000 0000 0000 000000
2017-09-09 08:32:37,0.02,0.21,0.00,24.72,27.90,30.30,13.86,40.95,1027.99,2030.00,3468.36,3033.78,3460.25,600.10,599.32,37.48,0000 0000 0000 0000 000000
2017-09-09 08:37:38,0.02,0.21,0.00,24.71,27.91,30.31,13.93,41.05,1028.05,2029.99,3468.05,3033.39,3460.03,599.85,599.22,37.53,0000 0000 0000 0000 000000
2017-09-09 08:42:40,0.00,0.21,0.00,24.72,27.92,30.34,13.91,41.04,1028.12,2029.99,3468.00,3033.04,3460.00,600.04,599.23,37.58,0000 0000 0000 0000 000000
2017-09-09 08:47:41,-0.00,0.21,0.00,24.73,27.94,30.35,13.95,41.17,1028.21,2029.99,3468.00,3033.02,3459.99,600.53,599.76,37.63,0000 0000 0000 0000 000000
2017-09-09 08:52:42,-0.00,0.21,0.00,24.71,27.95,30.36,13.95,41.39,1028.29,2029.98,3467.98,3033.00,3459.95,600.04,599.48,37.68,0000 0000 0000 0000 000000
2017-09-09 08:57:44,0.00,0.21,0.00,24.75,27.97,30.37,13.84,41.30,1028.32,2029.89,3467.75,3033.00,3459.44,600.21,599.63,37.73,0000 0000 0000 0000 000000
2017-09-09 09:02:45,-0.02,0.21,0.00,24.74,27.97,30.38,13.86,41.32,1028.33,2029.52,3467.06,3032.96,3459.03,599.65,598.95,37.78,0000 0000 0000 0000 000000
2017-09-09 09:07:46,-0.01,0.21,0.00,24.74,28.00,30.40,13.86,41.38,1028.33,2029.24,3467.00,3032.70,3459.01,599.76,599.18,37.83,0000 0000 0000 0000 000000
2017-09-09 09:12:48,-0.00,0.21,0.00,24.74,28.00,30.42,13.94,41.30,1028.33,2029.16,3467.00,3032.48,3458.99,600.07,599.58,37.89,0000 0000 0000 0000 000000
2017-09-09 09:17:49,-0.00,0.21,0.00,24.72,28.00,30.42,13.95,41.20,1028.33,2029.04,3466.96,3032.15,3458.95,600.06,599.49,37.94,0000 0000 0000 0000 000000
2017-09-09 09:22:50,0.01,0.21,0.00,24.71,28.02,30.42,13.83,41.09,1028.34,2029.02,3466.59,3032.03,3458.54,599.58,599.02,37.99,0000 0000 0000 0000 000000
2017-09-09 09:27:52,0.00,0.21,0.00,24.70,28.02,30.43,13.86,41.17,1028.35,2029.01,3466.44,3032.02,3458.23,600.00,599.40,38.04,0000 0000 0000 0000 000000
2017-09-09 09:32:53,0.00,0.21,0.00,24.69,28.02,30.43,13.88,41.15,1028.35,2029.00,3466.03,3032.00,3458.03,599.52,599.13,38.09,0000 0000 0000 0000 000000
2017-09-09 09:37:54,-0.00,0.21,0.00,24.68,28.02,30.44,13.92,41.01,1028.35,2029.02,3466.00,3032.00,3458.02,600.08,599.49,38.14,0000 0000 0000 0000 000000
2017-09-09 09:42:56,0.00,0.21,0.00,24.70,28.02,30.44,13.86,41.07,1028.40,2029.00,3465.99,3032.00,3458.00,599.89,599.25,38.19,0000 0000 0000 0000 000000
2017-09-09 09:47:57,0.00,0.21,0.00,24.71,28.02,30.43,13.81,41.02,1028.58,2029.00,3465.97,3031.99,3458.00,599.62,599.27,38.24,0000 0000 0000 0000 000000
2017-09-09 09:52:58,0.00,0.21,0.00,24.72,28.02,30.43,13.86,41.00,1028.74,2029.00,3465.81,3031.99,3457.98,599.81,599.48,38.29,0000 0000 0000 0000 000000
2017-09-09 09:58:00,0.01,0.21,0.00,24.69,28.02,30.45,13.91,41.14,1028.78,2029.00,3465.41,3031.99,3457.95,599.88,599.63,38.34,0000 0000 0000 0000 000000
2017-09-09 10:03:01,0.00,0.21,0.00,24.69,28.02,30.44,13.83,41.05,1028.82,2029.00,3465.15,3031.98,3457.96,599.91,599.60,38.39,0000 0000 0000 0000 000000
2017-09-09 10:08:02,0.00,0.21,0.00,24.68,28.03,30.45,13.88,41.03,1028.82,2029.00,3465.04,3031.97,3457.88,600.03,599.80,38.44,0000 0000 0000 0000 000000
2017-09-09 10:13:03,0.00,0.21,0.00,24.69,28.03,30.46,13.88,41.05,1028.82,2029.00,3465.01,3031.96,3457.76,600.19,599.83,38.49,0000 0000 0000 0000 000000
2017-09-09 10:18:04,0.00,0.21,0.00,24.68,28.03,30.45,13.82,40.93,1028.82,2029.00,3465.00,3031.89,3457.52,599.97,599.75,38.54,0000 0000 0000 0000 000000
2017-09-09 10:23:06,0.02,0.21,0.00,24.67,28.03,30.45,13.91,41.00,1028.82,2029.00,3464.98,3031.42,3457.09,600.03,600.01,38.59,0000 0000 0000 0000 000000
2017-09-09 10:28:07,0.00,0.21,0.00,24.67,28.03,30.47,13.86,40.98,1028.82,2029.00,3464.97,3031.27,3457.03,599.81,599.58,38.64,0000 0000 0000 0000 000000
2017-09-09 10:33:08,0.01,0.21,0.00,24.67,28.03,30.44,13.91,41.02,1028.82,2029.00,3464.58,3031.07,3457.01,600.08,599.86,38.69,0000 0000 0000 0000 000000
2017-09-09 10:38:10,0.01,0.21,0.00,24.65,28.04,30.46,13.84,41.08,1028.82,2029.02,3464.38,3031.08,3457.07,599.89,599.79,38.74,0000 0000 0000 0000 000000
2017-09-09 10:43:11,0.06,0.21,0.00,24.64,28.04,30.45,13.88,40.86,1028.82,2029.01,3462.99,3030.37,3456.32,600.16,600.11,38.79,0000 0000 0000 0000 000000
2017-09-09 10:48:13,0.03,0.22,0.00,24.65,28.04,30.46,13.86,40.95,1028.83,2029.00,3462.01,3029.57,3455.49,599.80,599.61,38.85,0000 0000 0000 0000 000000
2017-09-09 10:53:14,0.01,0.22,0.00,24.66,28.04,30.45,13.90,40.73,1028.83,2029.01,3461.92,3029.14,3455.04,599.59,599.30,38.90,0000 0000 0000 0000 000000
2017-09-09 10:58:15,0.01,0.22,0.00,24.67,28.04,30.46,13.89,40.79,1028.83,2029.01,3461.51,3029.03,3455.00,599.87,599.69,38.95,0000 0000 0000 0000 000000
2017-09-09 11:03:16,0.00,0.22,0.00,24.66,28.03,30.47,13.92,41.06,1028.84,2029.02,3461.09,3029.01,3455.00,599.80,599.56,39.00,0000 0000 0000 0000 000000
2017-09-09 11:08:18,0.00,0.22,0.00,24.64,28.03,30.46,13.86,41.08,1028.87,2029.02,3461.01,3029.01,3454.98,599.78,599.70,39.05,0000 0000 0000 0000 000000
2017-09-09 11:13:19,0.00,0.22,0.00,24.65,28.03,30.47,13.93,41.01,1028.89,2029.01,3461.00,3029.00,3454.93,600.27,600.15,39.10,0000 0000 0000 0000 000000
2017-09-09 11:18:20,0.00,0.22,0.00,24.65,28.03,30.47,13.90,41.12,1028.89,2029.02,3461.00,3029.00,3454.98,599.91,599.69,39.15,0000 0000 0000 0000 000000
2017-09-09 11:23:22,0.00,0.22,0.00,24.66,28.03,30.46,13.88,41.01,1028.96,2029.03,3461.00,3029.00,3454.96,599.94,599.86,39.20,0000 0000 0000 0000 000000
2017-09-09 11:28:23,0.01,0.22,0.00,24.63,28.02,30.46,13.91,41.00,1028.96,2029.09,3460.98,3029.00,3454.90,599.86,599.68,39.25,0000 0000 0000 0000 000000
2017-09-09 11:33:24,0.01,0.22,0.00,24.65,28.02,30.46,13.96,40.98,1029.01,2029.20,3460.98,3029.00,3454.77,599.93,599.89,39.30,0000 0000 0000 0000 000000
2017-09-09 11:38:25,-0.00,0.22,0.00,24.66,28.02,30.47,13.89,41.08,1029.22,2029.11,3460.78,3029.00,3454.31,599.84,599.92,39.35,0000 0000 0000 0000 000000
2017-09-09 11:43:26,0.01,0.22,0.00,24.64,28.02,30.47,13.89,41.17,1029.27,2029.10,3460.46,3028.98,3454.11,599.80,600.01,39.40,0000 0000 0000 0000 000000
2017-09-09 11:48:28,0.01,0.22,0.00,24.64,28.02,30.46,13.90,40.97,1029.31,2029.12,3460.25,3028.98,3454.02,599.71,599.81,39.45,0000 0000 0000 0000 000000
2017-09-09 11:53:29,0.00,0.22,0.00,24.63,28.02,30.45,13.91,41.13,1029.31,2029.15,3460.07,3028.99,3454.02,600.16,600.38,39.50,0000 0000 0000 0000 000000
2017-09-09 11:58:30,0.00,0.22,0.00,24.63,28.02,30.45,13.83,41.16,1029.31,2029.22,3460.01,3028.97,3454.12,599.79,599.97,39.55,0000 0000 0000 0000 000000
2017-09-09 12:03:31,-0.00,0.22,0.00,24.63,28.02,30.45,13.87,41.11,1029.31,2029.10,3460.00,3028.89,3454.07,599.80,600.02,39.60,0000 0000 0000 0000 000000
2017-09-09 12:08:33,0.01,0.22,0.00,24.61,28.02,30.45,13.98,41.14,1029.32,2029.13,3460.00,3028.92,3454.03,600.06,600.21,39.65,0000 0000 0000 0000 000000
2017-09-09 12:13:35,0.00,0.22,0.00,24.63,28.02,30.47,13.91,40.92,1029.32,2029.14,3460.00,3028.79,3454.01,599.68,599.82,39.70,0000 0000 0000 0000 000000
2017-09-09 12:18:36,0.01,0.22,0.00,24.62,28.02,30.45,13.92,40.86,1029.32,2029.18,3459.99,3028.81,3454.00,600.11,600.29,39.75,0000 0000 0000 0000 000000
2017-09-09 12:23:37,-0.00,0.22,0.00,24.60,28.02,30.45,13.92,40.92,1029.34,2029.13,3459.99,3028.73,3454.00,599.92,600.12,39.81,0000 0000 0000 0000 000000
2017-09-09 12:28:38,0.00,0.22,0.00,24.60,28.02,30.47,13.94,40.98,1029.34,2029.15,3459.99,3028.76,3454.00,599.96,600.22,39.86,0000 0000 0000 0000 000000
2017-09-09 12:33:40,0.01,0.22,0.00,24.61,28.02,30.45,13.92,40.88,1029.39,2029.17,3459.99,3028.60,3453.97,600.64,600.95,39.91,0000 0000 0000 0000 000000
2017-09-09 12:38:41,0.02,0.22,0.00,24.58,28.01,30.45,13.98,41.05,1029.42,2029.28,3459.87,3028.39,3453.94,600.37,600.84,39.96,0000 0000 0000 0000 000000
2017-09-09 12:43:42,0.01,0.22,0.00,24.61,28.00,30.45,13.87,40.93,1029.50,2029.17,3459.35,3028.12,3453.57,599.93,600.18,40.01,0000 0000 0000 0000 000000
2017-09-09 12:48:43,0.02,0.22,0.00,24.59,28.00,30.44,13.89,41.07,1029.55,2029.29,3459.06,3028.05,3453.31,599.95,600.39,40.06,0000 0000 0000 0000 000000
2017-09-09 12:53:44,0.03,0.23,0.00,24.58,28.00,30.43,13.94,41.08,1029.74,2029.53,3459.00,3028.00,3453.05,600.18,600.71,40.11,0000 0000 0000 0000 000000